User: anonymous   Login
Location: Les Jeannots
(43.2262°N, 5.5774°E)
Time: 23:16:12
(UTC+00:00)
Language:

Cosmos 1703 - Orbit

View from above orbital plane
View from above orbital plane
View from above satellite
View from above satellite

Ground track
Ground track

The orbit data is extracted from the following two-line orbital elements,

1 16262U 85108A   20272.38761858 +.00000295 +00000-0 +15625-4 0  9997
2 16262 082.4803 151.1469 0012609 108.5762 251.6839 15.11366251899717
Epoch (UTC): 28 September 2020 09:18:10
Eccentricity: 0.0012609
inclination: 82.4803°
perigee height: 523 km
apogee height: 541 km
right ascension of ascending node: 151.1469°
argument of perigee: 108.5762°
revolutions per day: 15.11366251
mean anomaly at epoch: 251.6839°
orbit number at epoch: 89971

The dashed part of the orbit path shows where the satellite is in the earth's shadow,  

DLR